User: anonymous   Login
Location: Unspecified
(0.0000°N, 0.0000°E)
Time: 00:46:57
(UTC+00:00)
Language:

Terriers - Orbit

View from above orbital plane
View from above orbital plane
View from above satellite
View from above satellite

Ground track
Ground track

The orbit data is extracted from the following two-line orbital elements,

1 25735U 99026A   21023.57166548  .00002377  00000-0  43940-4 0  9991
2 25735  97.2646 210.5358 0003020 219.2199 140.8834 15.50094291209847
Epoch (UTC): 23 January 2021 13:43:11
Eccentricity: 0.0003020
inclination: 97.2646°
perigee height: 414 km
apogee height: 418 km
right ascension of ascending node: 210.5358°
argument of perigee: 219.2199°
revolutions per day: 15.50094291
mean anomaly at epoch: 140.8834°
orbit number at epoch: 20984

The dashed part of the orbit path shows where the satellite is in the earth's shadow,  

DLR